Location: Poughquag
(41.6090°N, 73.6820°W)
Time: 20:20:55
(UTC-04:00)

Tiros 1 despin weight - Pass Details

Date: 06 June 2020
Orbit: 593 x 642 km, 48.2° (Epoch: 04 July)

Event Time Altitude Azimuth Distance (km) Brightness Sun altitude
Rises 09:18:46 0° 246° (WSW) 2,933 ? 41.7°
Reaches altitude 10° 09:21:06 10° 248° (WSW) 2,023 ? 42.1°
Maximum altitude 09:25:46 75° 334° (NNW) 659 ? 43.0°
Drops below altitude 10° 09:30:24 10° 61° (ENE) 2,006 ? 43.8°
Sets 09:32:42 0° 63° (ENE) 2,907 ? 44.3°
